Flag for Germany Weather past 2 weeks in Koblenz, Rhineland-Palatinate, Germany

Now
54 °F

Cool.


Feels Like: 52 °F
Forecast: 51 / 71 °F
Wind: 7 mph from North

Location: Buechel

Current Time: May 23, 2015 at 2:43:29 AM

Latest Report: May 23, 2015 at 1:20 AM


Visibility: 5 mi

Pressure: 30.18 "Hg

Humidity: 54%

Dew point: 37 °F

Location of KoblenzLocation

Historic Weather in Koblenz — Graph

°F

Koblenz temperature yesterday

Maximum temperature yesterday: 63 °F (at 2:20 PM)
Minimum temperature yesterday: 46 °F (at 6:20 AM)
Average temperature yesterday: 55 °F

Past Weeks' High & Low Weather Summary

 TemperatureHumidityPressure
High75 °F (May 12, 2:20 PM)100% (May 15, 7:20 AM)30.33 "Hg (May 15, 7:20 AM)
Low37 °F (May 21, 5:20 AM)26% (May 8, 3:20 PM)29.71 "Hg (May 18, 7:20 PM)
Average54 °F65%30.08 "Hg
* Reported May 8 1:20 AM — May 23 1:20 AM, Koblenz, Weather by CustomWeather, © 2015

Note: Actual official high and low records may vary slightly from our data, if they occured in-between our weather recording intervals... More about our weather records

Advertising

Koblenz weather history for previous 24 hours

 ConditionsComfort  
Time TempWeatherWind HumidityBarometerVisibility
1:20 AM
Sat, May 23
54 °FCool.7 mph54%30.18 "Hg5 mi
12:20 AM54 °FCool.7 mph54%30.21 "Hg6 mi
11:20 PM
Fri, May 22
55 °FRefreshingly cool.6 mph51%30.21 "HgN/A
10:20 PM55 °FRefreshingly cool.6 mph47%30.21 "Hg5 mi
9:20 PM59 °FRefreshingly cool.7 mph45%30.21 "HgN/A
8:20 PM61 °FRefreshingly cool.6 mph45%30.21 "HgN/A
7:20 PM61 °FRefreshingly cool.5 mph48%30.21 "HgN/A
6:20 PM61 °FRefreshingly cool.5 mph42%30.21 "HgN/A
5:20 PM63 °FMild.6 mph39%30.21 "HgN/A
4:20 PM63 °FMild.6 mph37%30.24 "HgN/A
3:20 PM61 °FRefreshingly cool.3 mph42%30.24 "HgN/A
2:20 PM63 °FMild.6 mph39%30.27 "Hg5 mi
1:20 PM59 °FScattered clouds.3 mph42%30.27 "HgN/A
12:20 PM57 °FScattered clouds.6 mph48%30.30 "HgN/A
11:20 AM57 °FScattered clouds.5 mph51%30.30 "HgN/A
10:20 AM55 °FScattered clouds.5 mph55%30.33 "HgN/A
9:20 AM55 °FScattered clouds.2 mph51%30.33 "HgN/A
8:20 AM52 °FPartly sunny.3 mph62%30.33 "HgN/A
7:20 AM48 °FPartly sunny.1 mph76%30.33 "HgN/A
6:20 AM46 °FPassing clouds.3 mph76%30.30 "HgN/A
5:20 AM48 °FPassing clouds.5 mph71%30.33 "HgN/A
4:20 AM48 °FPassing clouds.5 mph71%30.33 "HgN/A
3:20 AM50 °FCool.5 mph67%30.33 "Hg6 mi
2:20 AM50 °FCool.6 mph67%30.33 "Hg6 mi
Weather by CustomWeather, © 2015

See weather overviewHow to use our weather pages